Location: Kawakawa
(35.3830°S, 174.0670°E)
Time: 01:38:34
(UTC+13:00)

SR - Visible Passes

Search period start: 16 December 2019 00:00
Search period end: 26 December 2019 00:00
Orbit: 573 x 882 km, 66.7° (Epoch: 15 December)

Date Brightness Start Highest point End Pass type
(mag) Time Alt. Az. Time Alt. Az. Time Alt. Az.
16 Dec ? 22:18:46 10° W 22:21:56 18° SW 22:25:00 10° S visible
17 Dec ? 05:19:46 10° SSE 05:22:14 14° SE 05:24:45 10° E visible
17 Dec ? 21:27:46 10° NW 21:32:05 38° WSW 21:36:13 10° S visible
19 Dec ? 05:21:19 10° S 05:25:09 28° ESE 05:29:11 10° ENE visible
19 Dec ? 21:31:39 10° W 21:34:56 19° SW 21:38:07 10° S visible
20 Dec ? 04:32:58 10° SSE 04:35:14 14° SE 04:37:33 10° E visible
21 Dec ? 05:23:30 10° SSW 05:27:55 59° ESE 05:32:36 10° NE visible
22 Dec ? 04:34:23 10° S 04:38:10 26° ESE 04:42:08 10° ENE visible
23 Dec ? 03:46:10 10° SSE 03:48:14 13° SE 03:50:20 10° ESE visible
23 Dec ? 05:26:07 10° SSW 05:30:34 64° WNW 05:35:21 10° NNE visible
24 Dec ? 04:36:33 10° SSW 04:40:56 54° ESE 04:45:39 10° NE visible
25 Dec ? 03:47:28 10° S 03:51:11 25° SE 03:55:04 10° ENE visible
25 Dec ? 05:29:11 10° SW 05:33:08 30° WNW 05:37:19 10° N visible
